EW4525 Weather Reports


time (UTC)temp
F
wind
direction
speed
knots
gust
knots
rain 1hr
in
rain 24hr
in
rain mn
in
humidity
%
barometer
mb
20260507101421 42 244 0.0 3.5 0.00 0.15 0.00 89 972.6
20260507100417 42 142 0.9 6.1 0.00 0.15 0.00 89 972.3
20260507095917 42 188 0.0 5.2 0.00 0.15 0.00 90 972.1
20260507095417 43 60 0.0 5.2 0.00 0.15 0.00 90 972.1
20260507094915 43 82 0.9 5.2 0.00 0.15 0.00 90 972.1
20260507094415 43 90 0.0 3.5 0.00 0.15 0.00 90 972.2
20260507093914 43 80 0.0 1.7 0.00 0.15 0.00 90 972.3
20260507093408 43 71 0.0 1.7 0.00 0.15 0.00 90 972.3
20260507092902 43 86 0.0 0.9 0.00 0.15 0.00 91 972.1
20260507092357 43 79 0.0 2.6 0.00 0.15 0.00 91 972.0
20260507091850 43 268 0.9 3.5 0.00 0.15 0.00 91 972.1
20260507091344 43 251 0.0 3.5 0.00 0.15 0.00 91 972.1
20260507090332 44 161 0.0 0.9 0.00 0.15 0.00 91 972.3
20260507085826 44 161 0.0 1.7 0.00 0.15 0.00 91 972.4
20260507085321 44 164 0.0 3.5 0.00 0.15 0.00 91 972.4
20260507084819 44 181 0.0 3.5 0.00 0.15 0.00 91 972.4
20260507084308 44 241 0.9 5.2 0.00 0.15 0.00 91 972.6
20260507083802 44 329 0.9 5.2 0.00 0.15 0.00 91 972.6
20260507082244 44 76 0.9 3.5 0.00 0.15 0.00 91 972.5
20260507081738 44 74 0.0 3.5 0.00 0.15 0.00 91 972.6
20260507081233 44 40 0.0 3.5 0.00 0.15 0.00 91 972.6
20260507080726 44 208 0.9 4.3 0.00 0.15 0.00 91 972.6
20260507080221 44 159 0.9 9.6 0.00 0.15 0.00 91 972.6
20260507075715 44 305 0.9 9.6 0.00 0.15 0.00 92 972.5
20260507075208 45 178 0.0 4.3 0.00 0.15 0.00 92 972.4
20260507074702 45 192 0.0 1.7 0.00 0.15 0.00 92 972.4
20260507074157 45 225 0.0 0.0 0.00 0.15 0.00 92 972.5
20260507073650 45 129 0.0 0.0 0.00 0.15 0.00 92 972.3
20260507072639 45 103 0.0 0.9 0.00 0.15 0.00 92 971.7
20260507072133 45 90 0.0 1.7 0.00 0.15 0.00 92 971.8
20260507071626 45 90 0.0 1.7 0.00 0.15 0.00 92 971.7
20260507071120 45 89 0.0 1.7 0.00 0.15 0.00 93 971.7
20260507070614 45 89 0.0 0.0 0.00 0.15 0.00 93 971.7
20260507065603 45 89 0.0 5.2 0.00 0.15 0.00 93 971.5
20260507065057 45 105 0.0 0.0 0.00 0.15 0.00 93 971.7
20260507064045 45 112 0.0 0.0 0.00 0.15 0.00 93 971.8
20260507063543 45 112 0.0 0.0 0.00 0.15 0.00 93 971.7
20260507063043 45 236 0.0 0.0 0.00 0.15 0.00 93 971.7
20260507062541 46 236 0.0 0.0 0.00 0.15 0.00 93 971.6
20260507062039 46 236 0.0 0.9 0.00 0.15 0.00 93 971.7
20260507061538 46 236 0.0 0.9 0.00 0.15 0.00 93 971.7
20260507061039 46 236 0.0 0.0 0.00 0.15 0.00 93 971.9
20260507060536 46 236 0.0 0.9 0.00 0.15 0.00 93 971.7
20260507060037 46 236 0.0 0.9 0.00 0.15 0.00 93 971.7
20260507055537 46 236 0.0 0.0 0.00 0.15 0.00 93 971.7
20260507055036 46 236 0.0 0.0 0.00 0.15 0.00 93 971.8
20260507054536 46 236 0.0 0.0 0.00 0.15 0.00 93 971.6
20260507054037 46 236 0.0 0.0 0.00 0.15 0.00 93 971.8
20260507053537 46 236 0.0 0.9 0.00 0.15 0.00 93 971.7
20260507052537 46 236 0.0 0.0 0.00 0.15 0.00 93 971.9
20260507052036 46 236 0.0 0.0 0.00 0.15 0.00 93 972.0
20260507051537 46 236 0.0 1.7 0.00 0.15 0.00 93 972.1
20260507050530 46 236 0.0 1.7 0.00 0.15 0.00 93 971.9
20260507050026 46 241 0.0 1.7 0.00 0.15 0.00 93 972.3
20260507045526 46 239 0.0 2.6 0.00 0.15 0.00 93 972.4
20260507045025 46 239 0.0 3.5 0.00 0.15 0.00 93 971.9
20260507044021 46 263 0.0 0.9 0.00 0.15 0.00 93 972.4
20260507043519 46 142 0.0 0.0 0.00 0.15 0.00 93 972.4
20260507043016 46 139 0.0 0.0 0.00 0.15 0.00 93 972.3
20260507042514 46 133 0.0 0.0 0.00 0.15 0.00 93 972.2
20260507042014 46 131 0.0 1.7 0.00 0.15 0.00 93 972.0
20260507041012 47 244 0.0 0.9 0.00 0.15 0.00 93 971.8
20260507040513 47 244 0.0 0.9 0.00 0.15 0.00 93 971.7
20260507040011 47 244 0.0 0.0 0.00 0.15 0.00 93 971.7
20260507035509 47 244 0.0 0.9 0.00 0.15 0.46 93 971.6
20260507034509 47 244 0.0 0.9 0.00 0.15 0.46 93 971.8
20260507034002 47 244 0.0 0.9 0.00 0.15 0.46 93 971.8
20260507033454 47 244 0.0 0.0 0.00 0.15 0.46 93 971.9
20260507032948 47 244 0.0 0.9 0.00 0.15 0.46 93 972.0
20260507032442 47 244 0.0 2.6 0.00 0.15 0.46 93 972.0
20260507031937 47 248 0.0 2.6 0.00 0.15 0.46 93 971.9
20260507031431 47 248 0.0 1.7 0.00 0.15 0.46 93 972.0
20260507024901 47 140 0.0 1.7 0.01 0.15 0.46 93 972.1
20260507024354 47 123 0.0 2.6 0.01 0.15 0.46 93 972.0
20260507023848 47 290 0.0 5.2 0.02 0.15 0.46 93 972.1
20260507023342 47 286 0.0 5.2 0.02 0.15 0.46 93 972.1
20260507022330 48 279 0.0 0.0 0.02 0.15 0.46 93 972.1
20260507021824 48 279 0.0 0.0 0.02 0.15 0.46 93 972.0
20260507021318 48 279 0.0 0.0 0.03 0.15 0.46 93 972.0
20260507020813 48 279 0.0 0.0 0.04 0.15 0.46 93 972.2
20260507020307 48 279 0.0 0.0 0.06 0.15 0.46 93 972.1
20260507015800 48 279 0.0 0.0 0.06 0.14 0.45 93 971.9
20260507015254 48 279 0.0 0.0 0.06 0.14 0.45 93 972.1
20260507013736 48 279 0.0 0.0 0.06 0.13 0.44 93 971.9
20260507013231 48 279 0.0 0.0 0.06 0.13 0.44 93 971.9
20260507012219 48 279 0.0 0.0 0.07 0.13 0.44 93 972.0
20260507011713 48 279 0.0 0.9 0.07 0.13 0.44 93 971.9
20260507011206 48 279 0.0 2.6 0.06 0.12 0.43 92 971.8
20260507005648 49 70 0.0 3.5 0.02 0.08 0.39 92 971.7
20260507005143 49 61 0.0 3.5 0.02 0.08 0.39 92 971.6
20260507004638 49 46 0.0 1.7 0.02 0.07 0.38 92 971.5
20260507003625 49 155 0.0 3.5 0.02 0.07 0.38 92 971.4
20260507002612 50 194 0.0 4.3 0.01 0.06 0.38 92 971.1
20260507002106 50 187 0.0 4.3 0.01 0.06 0.37 92 970.9
20260507001600 50 150 0.0 3.5 0.01 0.06 0.37 92 971.0
20260507001055 51 146 0.0 3.5 0.01 0.06 0.37 92 970.7
20260507000549 51 113 0.9 5.2 0.01 0.06 0.37 92 970.5
20260507000043 51 111 0.0 5.2 0.02 0.06 0.37 92 970.5
20260506235537 52 281 0.0 1.7 0.04 0.06 0.37 92 970.4
20260506235030 52 164 0.0 0.9 0.03 0.05 0.36 92 970.0
20260506234524 52 193 0.0 3.5 0.05 0.05 0.36 92 970.0
20260506234019 53 220 0.0 3.5 0.05 0.05 0.36 92 970.0
20260506233513 53 287 0.0 0.9 0.05 0.05 0.36 92 969.9
20260506232500 54 144 0.0 1.7 0.05 0.05 0.36 92 969.7
20260506231954 54 105 0.0 0.0 0.05 0.05 0.36 92 969.6
20260506231449 55 215 0.0 0.0 0.05 0.05 0.36 91 969.3
20260506230943 55 275 0.0 0.9 0.05 0.05 0.36 91 969.2
20260506230437 55 275 0.0 0.9 0.05 0.05 0.36 91 969.1
20260506225934 56 289 0.0 6.1 0.03 0.03 0.35 90 969.1
20260506225434 57 295 0.0 6.1 0.02 0.02 0.33 89 968.9
20260506224935 59 103 0.0 3.5 0.02 0.02 0.33 91 968.7
20260506224440 59 272 0.0 2.6 0.00 0.00 0.31 92 968.4
20260506223933 60 184 0.0 2.6 0.00 0.00 0.31 92 968.0
20260506223431 60 196 0.0 0.9 0.00 0.00 0.31 92 967.9
20260506222929 59 232 0.0 2.6 0.00 0.00 0.31 92 968.0
20260506222429 60 265 0.0 2.6 0.00 0.00 0.31 92 968.0
20260506221928 59 286 0.0 3.5 0.00 0.00 0.31 92 968.1
20260506221426 59 254 0.0 3.5 0.00 0.00 0.31 92 967.9
20260506220925 60 169 0.0 4.3 0.00 0.00 0.31 92 968.1
20260506215925 60 298 0.0 0.9 0.00 0.00 0.31 92 968.1
20260506215422 60 177 0.0 0.9 0.00 0.00 0.31 92 968.1
20260506214921 60 199 0.0 0.9 0.00 0.00 0.31 92 968.2
20260506214421 60 163 0.0 1.7 0.00 0.00 0.31 92 968.1
20260506213419 59 271 0.0 3.5 0.00 0.00 0.31 92 968.1
20260506212912 59 313 0.0 3.5 0.00 0.00 0.31 92 968.2
20260506212413 59 279 0.0 4.3 0.00 0.00 0.31 92 968.2